Regional Weather Roundup
Issued by NWS Goodland, KS

Home | Current Version | Previous Version | Text Only | Print | Product List | Glossary Off
Versions: 1 2 3 4 5 6 7 8 9 10 11 12 13 14 15 16 17 18 19 20 21 22 23 24 25 26 27 28 29 30 31 32 33 34 35 36 37 38 39 40 41 42 43 44 45 46 47 48 49 50

000
ASUS43 KGLD 211608
RWRGLD

GOODLAND FORECAST AREA HOURLY WEATHER ROUNDUP
NATIONAL WEATHER SERVICE GOODLAND KS
900 AM MST SUN DEC 21 2014

...OFFICIAL OBSERVATIONS...

CITY           SKY/WX    TMP DP  RH WIND       PRES   REMARKS
GOODLAND KS    SUNNY     38  29  70 SW6       29.73F
HILL CITY KS   CLOUDY    37  36  96 S12       29.81F FOG
IMPERIAL NEB   SUNNY     32  26  78 S6        29.69F
MCCOOK NEB     SUNNY     35  30  82 S3        29.73F
AKRON CO       CLOUDY    37  23  56 S9        29.67F
BURLINGTON CO  SUNNY     38  27  64 W6        29.72F
LIMON CO       CLOUDY    29  24  82 NE3       29.70F
$$

...UNOFFICIAL OBSERVATIONS...

CITY           SKY/WX    TMP DP  RH WIND       PRES   REMARKS
GOVE KS          N/A     37  32  82 MISG        N/A
TRIBUNE KS     SUNNY     34  34 100 SW5       29.77F
KIT CARSON CO    N/A     30  26  85 MISG        N/A
YUMA CO          N/A     31  24  75 SW6         N/A
$$



USA.gov is the U.S. government's official web portal to all federal, state and local government web resources and services.